Wind_Speed
4 3 3 4 4 4 4 4 4 4 4 4 4 4 4 3 3 4 5 5 6 6 7 7 7 8 8 8 9 9 8 9 10 10 10 11 12 12 12 13 12 11 11
2 1 2 2 2 2 3 3 2 3 3 3 3 3 2 2 3 3 3 4 5 5 6 6 7 7 8 8 8 9 9 9 9 10 10 10 10 10 10 11 11 11 11
1 1 1 1 1 1 2 2 2 2 2 2 2 2 2 1 1 2 2 3 4 5 5 5 6 6 6 8 8 8 9 9 9 9 10 10 9 9 8 9 10 11 11
1 1 1 1 1 1 1 1 1 1 2 2 1 1 1 0 0 1 1 2 3 3 3 3 4 5 6 6 6 7 8 8 8 9 9 9 9 9 9 8 9 10 11
1 1 0 1 1 1 1 1 1 1 1 1 1 1 1 1 0 0 0 1 1 2 1 2 3 4 4 5 6 6 7 7 7 8 8 8 8 9 8 8 8 8 9
1 1 0 1 1 1 1 2 1 1 1 1 1 1 2 1 1 1 1 1 1 1 1 2 2 3 3 3 4 5 6 6 6 7 7 8 7 8 7 7 7 7 8
1 1 1 1 2 2 2 2 2 2 2 2 2 2 2 2 2 2 1 1 0 1 1 1 2 2 3 3 3 4 5 6 6 6 7 7 7 8 7 7 7 7 8
2 1 1 2 2 2 2 2 2 2 2 2 3 3 3 2 2 2 2 1 1 1 1 2 2 2 2 2 2 3 4 5 5 5 6 7 7 7 7 6 6 7 8
2 2 1 1 2 2 2 2 2 2 2 2 2 2 2 2 2 2 1 1 2 2 2 2 2 2 3 2 2 3 3 3 4 4 5 5 5 6 6 6 6 7 8
3 2 1 1 2 2 1 2 2 2 1 2 2 2 1 1 1 1 0 1 2 2 2 2 2 2 3 2 2 2 2 2 3 4 5 5 5 5 5 6 6 7 8
3 2 2 1 2 2 1 1 1 1 1 2 2 1 1 1 1 0 0 1 1 1 1 2 2 3 3 2 2 2 2 2 3 3 4 5 5 5 5 6 7 7 8
4 3 2 2 1 1 0 0 1 0 1 2 2 1 1 1 0 0 0 1 1 2 2 2 3 2 3 3 3 3 2 2 3 3 4 4 5 5 6 6 7 7 8
4 3 3 2 1 0 0 0 1 1 1 1 1 1 1 1 0 0 1 1 2 2 2 2 3 2 2 3 3 4 3 3 3 4 4 5 5 6 7 7 7 7 8
5 4 4 2 1 1 1 1 1 1 1 1 1 0 1 1 0 1 1 2 2 2 2 2 2 3 3 4 3 3 4 4 4 4 5 6 7 7 8 8 8 8 9
7 5 4 3 2 2 2 1 2 1 1 0 0 1 1 1 1 1 2 2 2 2 3 3 3 4 4 5 4 4 5 5 6 6 7 7 8 9 10 10 10 11 11
8 6 5 4 3 2 2 2 2 1 1 1 1 2 2 3 2 3 3 4 4 4 4 4 4 5 5 5 5 5 6 7 7 8 8 9 10 11 11 11 11 12 13
9 8 6 5 4 3 2 2 2 2 2 2 3 3 3 4 4 4 4 5 5 5 5 5 5 6 6 6 7 8 8 9 9 9 10 10 11 12 12 13 13 14 15
10 9 7 6 5 4 3 3 3 3 3 3 4 4 5 5 5 5 6 6 6 6 6 6 6 7 7 8 8 8 9 9 9 10 11 12 13 14 14 15 15 15 16
11 10 9 7 7 6 5 5 5 5 5 5 5 6 6 6 6 6 6 6 7 7 7 7 7 8 9 9 9 10 11 11 12 13 14 14 15 16 16 17 17 18 19
11 10 9 8 8 7 7 7 7 7 7 7 7 7 7 7 8 8 8 8 9 8 9 9 10 11 11 12 12 13 13 14 15 16 16 17 17 18 19 19 20 20 21
12 11 10 9 9 8 8 8 8 8 8 8 8 8 9 9 9 9 10 10 10 10 11 12 12 13 13 14 14 15 16 16 17 18 18 19 20 21 22 22 22 23 23
12 11 11 10 10 10 9 9 9 9 9 9 9 9 10 10 10 10 11 11 12 12 13 14 14 15 16 16 17 18 18 19 20 20 22 22 23 23 24 24 24 24 25
12 12 12 11 11 11 11 11 11 11 11 11 11 11 11 11 11 11 11 12 13 13 14 15 16 17 18 18 19 20 21 21 22 22 23 24 25 26 26 26 27 27 28
13 13 13 13 12 12 12 12 12 13 12 12 13 13 12 12 12 12 13 13 14 15 16 16 17 18 19 21 22 23 23 24 24 25 25 26 27 28 29 29 30 30 31
14 14 13 13 13 13 13 13 13 13 13 13 13 13 13 12 13 14 14 15 15 16 17 18 19 20 21 22 23 24 24 25 25 26 27 28 29 29 30 31 32 32 33
15 15 14 14 14 14 14 14 13 13 13 14 14 14 14 14 15 16 17 17 18 18 19 20 21 22 23 24 25 25 26 26 27 27 28 29 30 31 32 33 34 35 35
Wind_Direction
266 273 287 294 295 294 295 291 294 299 302 299 293 288 282 281 275 263 260 252 255 245 238 237 244 248 250 249 252 255 250 244 248 254 259 264 268 266 259 252 252 253 252
268 272 301 306 299 294 293 292 310 313 315 311 306 303 304 302 284 266 256 247 249 241 233 238 244 244 247 250 252 253 252 253 252 255 260 266 270 268 261 254 254 256 255
254 265 303 319 312 299 297 299 317 321 324 319 307 303 311 303 286 249 242 236 244 242 239 242 238 241 249 250 252 256 256 251 253 258 264 269 271 268 259 256 253 254 256
238 250 278 339 348 329 326 328 331 336 343 345 334 331 357 13 236 232 248 244 250 242 239 235 235 247 254 252 254 257 254 252 259 263 269 272 271 269 270 271 260 254 255
215 219 189 27 22 11 6 8 14 14 360 14 18 45 71 74 61 259 103 240 249 226 231 235 235 244 248 248 255 254 249 253 258 262 267 270 271 274 279 273 263 256 251
203 209 164 92 84 70 56 43 49 51 34 23 45 75 87 75 55 82 127 145 186 205 259 263 256 249 249 251 261 251 245 251 258 266 269 271 278 277 278 270 261 251 245
177 185 144 109 87 75 67 60 57 56 69 77 89 99 95 83 87 102 107 108 236 303 288 285 286 275 269 271 265 254 248 249 259 270 273 273 278 277 276 268 254 243 240
159 146 126 115 96 84 71 68 61 68 89 104 111 110 100 98 108 109 104 69 8 337 322 336 330 306 302 296 264 257 254 253 262 270 277 284 283 280 282 278 260 247 247
165 153 137 128 126 106 88 79 71 81 101 121 126 124 120 108 100 97 86 39 18 5 354 339 324 326 326 320 298 289 279 256 259 271 284 287 291 286 279 279 268 253 247
181 176 167 151 152 134 115 99 96 89 120 140 137 136 140 126 114 95 88 16 15 13 1 3 356 349 349 351 350 326 311 289 274 277 281 288 290 291 285 288 282 271 262
186 179 173 166 163 162 153 109 77 107 159 168 162 160 169 178 209 245 261 326 355 352 342 341 351 352 357 353 354 345 332 317 307 290 289 293 292 292 294 294 290 276 269
189 185 183 175 167 170 292 344 15 94 152 161 153 149 152 178 246 289 293 283 312 319 315 321 327 326 337 328 331 331 317 316 318 308 299 292 291 293 296 298 297 287 276
197 193 192 183 173 165 298 299 97 114 143 149 152 163 187 205 250 294 302 298 310 307 310 318 319 309 317 318 317 325 324 318 325 321 315 308 303 298 297 295 294 293 287
204 204 205 199 203 205 192 172 147 119 131 156 141 84 255 236 267 285 295 295 303 302 309 307 314 323 317 320 319 323 322 323 329 326 316 312 306 302 301 298 294 291 289
213 216 217 224 227 224 222 218 195 188 159 149 249 310 297 260 297 284 290 297 307 310 313 304 311 317 317 316 319 320 319 317 317 318 316 308 304 298 295 294 292 290 291
214 217 224 234 238 244 239 216 201 213 239 253 268 278 282 274 293 295 294 290 292 297 302 306 309 313 315 314 310 312 308 305 304 304 307 309 306 306 304 303 299 296 294
216 218 226 233 236 241 243 236 231 239 254 271 279 284 287 293 299 298 296 291 290 294 296 298 299 305 309 309 302 300 300 301 303 305 307 310 312 311 309 308 303 299 296
218 221 224 228 233 238 245 248 256 258 271 283 291 296 296 299 296 294 296 295 291 292 296 298 299 303 309 310 304 304 302 300 302 305 307 307 307 308 308 306 303 299 297
218 222 226 232 237 243 249 254 259 270 279 282 286 290 292 295 295 292 288 288 291 292 293 298 301 304 307 308 306 304 303 300 301 302 303 303 303 303 303 302 301 299 297
220 223 228 235 239 245 250 256 263 270 276 280 285 289 292 295 295 290 287 286 287 288 289 293 295 297 301 302 300 301 302 300 299 298 298 298 300 300 301 301 300 299 298
226 228 232 237 241 247 254 260 266 271 275 277 281 285 290 293 294 289 287 287 287 286 288 292 293 295 297 298 299 301 302 301 300 300 300 299 299 300 300 299 298 298 297
228 233 236 239 245 250 255 259 265 272 276 279 281 284 288 291 294 291 287 286 285 285 289 291 292 293 296 297 298 299 300 300 300 300 300 300 300 299 299 299 299 298 297
233 236 239 243 249 253 257 260 264 271 276 280 281 282 284 287 289 289 288 290 290 289 291 293 294 293 295 296 297 298 298 298 299 299 300 301 301 300 299 299 299 298 297
238 240 243 247 250 255 260 264 268 272 276 279 280 280 283 285 285 287 288 290 290 290 292 294 295 296 297 298 298 297 297 297 297 298 299 300 300 299 299 298 298 298 297
242 243 245 249 253 256 261 266 269 271 274 278 280 280 282 284 284 285 288 290 290 290 291 292 295 297 298 298 298 298 298 298 298 298 299 299 299 299 299 298 298 298 297
245 245 246 250 254 257 261 266 269 272 274 276 278 279 280 282 285 286 288 289 290 291 292 293 294 295 297 297 298 298 298 298 298 299 300 300 299 299 298 298 297 297 297
Height
5877 5877 5876 5876 5875 5875 5874 5873 5873 5872 5871 5870 5869 5869 5868 5868 5867 5867 5867 5867 5867 5868 5868 5869 5869 5869 5869 5869 5869 5868 5866 5866 5867 5867 5867 5865 5863 5861 5860 5861 5864 5865 5865
5876 5876 5876 5875 5875 5874 5873 5873 5872 5871 5871 5870 5869 5868 5868 5867 5867 5866 5867 5867 5867 5867 5867 5868 5868 5868 5868 5868 5867 5867 5867 5867 5866 5866 5865 5864 5861 5859 5858 5859 5861 5863 5863
5876 5875 5875 5874 5874 5874 5873 5872 5872 5871 5870 5869 5869 5868 5867 5867 5866 5866 5866 5866 5866 5866 5867 5867 5867 5867 5867 5866 5866 5866 5866 5866 5865 5865 5865 5863 5861 5859 5859 5859 5859 5860 5861
5875 5875 5875 5874 5873 5873 5873 5872 5871 5871 5870 5869 5868 5868 5867 5867 5866 5866 5866 5866 5866 5866 5866 5866 5866 5866 5865 5865 5865 5865 5865 5864 5864 5864 5864 5863 5861 5860 5859 5857 5857 5857 5859
5875 5875 5874 5874 5873 5873 5873 5872 5871 5870 5870 5869 5868 5868 5867 5867 5867 5866 5866 5866 5866 5866 5866 5866 5866 5865 5865 5864 5864 5864 5864 5863 5863 5863 5863 5862 5861 5859 5858 5856 5855 5855 5856
5875 5874 5874 5874 5873 5873 5872 5872 5871 5870 5870 5869 5869 5868 5868 5867 5867 5867 5867 5866 5866 5866 5866 5866 5865 5865 5864 5864 5863 5863 5863 5863 5862 5862 5862 5861 5860 5859 5857 5855 5854 5854 5856
5874 5874 5874 5874 5873 5873 5872 5872 5871 5870 5870 5869 5869 5869 5868 5868 5867 5867 5867 5867 5867 5866 5866 5866 5865 5865 5864 5863 5863 5862 5862 5862 5861 5861 5861 5860 5859 5858 5856 5855 5854 5854 5855
5874 5874 5874 5874 5873 5873 5873 5872 5871 5871 5870 5870 5870 5869 5869 5869 5868 5868 5868 5867 5867 5866 5866 5865 5865 5864 5863 5863 5862 5861 5861 5861 5861 5860 5860 5859 5858 5857 5856 5854 5854 5854 5854
5874 5874 5874 5874 5873 5873 5873 5872 5871 5871 5870 5870 5870 5870 5870 5869 5869 5869 5868 5868 5867 5867 5866 5865 5865 5864 5863 5862 5861 5860 5860 5859 5859 5859 5859 5858 5857 5856 5855 5854 5853 5853 5853
5874 5874 5874 5873 5873 5873 5873 5872 5872 5871 5871 5871 5870 5870 5870 5870 5870 5869 5869 5868 5867 5867 5866 5866 5865 5864 5863 5862 5861 5860 5859 5859 5859 5858 5858 5857 5856 5855 5854 5853 5852 5852 5851
5873 5873 5873 5873 5873 5873 5873 5873 5872 5871 5871 5871 5871 5870 5870 5870 5870 5870 5869 5869 5868 5867 5867 5866 5865 5864 5863 5862 5861 5860 5860 5859 5858 5858 5857 5857 5856 5855 5853 5852 5851 5850 5850
5873 5873 5873 5873 5873 5873 5873 5872 5872 5871 5871 5871 5871 5871 5870 5870 5870 5869 5869 5869 5868 5868 5867 5866 5865 5864 5863 5862 5861 5860 5860 5859 5858 5857 5856 5856 5855 5854 5853 5851 5850 5849 5849
5873 5873 5873 5873 5873 5873 5872 5872 5872 5871 5871 5871 5871 5870 5870 5870 5869 5869 5869 5869 5868 5867 5867 5866 5865 5864 5863 5862 5861 5860 5859 5858 5858 5857 5856 5855 5854 5853 5852 5850 5849 5848 5848
5872 5872 5872 5873 5873 5873 5873 5872 5872 5871 5871 5871 5871 5870 5870 5869 5869 5869 5869 5868 5868 5867 5867 5866 5865 5864 5863 5862 5861 5860 5859 5858 5857 5856 5855 5854 5853 5851 5850 5849 5848 5847 5846
5871 5872 5872 5872 5872 5872 5872 5872 5872 5871 5871 5871 5871 5870 5870 5869 5869 5868 5868 5868 5868 5867 5866 5865 5865 5864 5863 5862 5861 5860 5859 5858 5857 5856 5854 5853 5852 5850 5849 5847 5846 5845 5844
5870 5871 5871 5872 5872 5872 5872 5872 5872 5871 5871 5871 5871 5870 5870 5869 5868 5868 5867 5867 5866 5866 5865 5865 5864 5863 5863 5862 5861 5860 5859 5857 5856 5855 5853 5852 5850 5849 5847 5846 5844 5843 5842
5869 5870 5870 5871 5871 5871 5871 5871 5871 5871 5871 5870 5870 5870 5869 5868 5867 5867 5866 5865 5865 5865 5864 5864 5863 5863 5862 5861 5860 5859 5857 5856 5855 5853 5852 5850 5849 5847 5845 5843 5841 5840 5839
5867 5868 5869 5870 5870 5870 5871 5871 5871 5870 5870 5870 5869 5869 5868 5867 5866 5865 5865 5864 5864 5863 5863 5863 5862 5861 5861 5860 5858 5857 5856 5854 5853 5852 5850 5848 5847 5845 5843 5841 5839 5837 5836
5866 5867 5868 5869 5869 5869 5870 5870 5870 5870 5869 5869 5868 5868 5867 5866 5865 5864 5863 5863 5863 5862 5862 5861 5861 5860 5859 5858 5857 5855 5854 5853 5851 5849 5848 5846 5844 5842 5840 5838 5836 5834 5832
5864 5865 5866 5867 5867 5868 5868 5868 5868 5868 5868 5867 5867 5866 5865 5865 5864 5863 5862 5862 5861 5861 5860 5860 5859 5858 5857 5856 5854 5853 5852 5850 5848 5846 5845 5843 5841 5839 5837 5834 5832 5830 5828
5862 5863 5864 5865 5866 5866 5867 5867 5867 5866 5866 5866 5865 5864 5864 5863 5862 5861 5861 5860 5859 5859 5858 5857 5857 5856 5854 5853 5852 5850 5848 5847 5845 5843 5841 5839 5837 5835 5833 5830 5827 5825 5823
5860 5861 5862 5863 5864 5864 5865 5865 5865 5864 5864 5864 5863 5862 5862 5861 5860 5859 5858 5858 5857 5856 5856 5855 5854 5852 5851 5850 5848 5846 5845 5843 5841 5839 5836 5834 5832 5830 5827 5825 5822 5819 5817
5857 5859 5860 5861 5861 5862 5862 5862 5862 5862 5862 5861 5861 5860 5859 5858 5857 5857 5856 5855 5854 5853 5852 5851 5850 5848 5847 5845 5844 5842 5840 5838 5836 5833 5831 5829 5826 5824 5821 5819 5816 5813 5811
5855 5856 5857 5858 5858 5859 5859 5860 5860 5859 5859 5858 5858 5857 5856 5855 5855 5854 5853 5852 5851 5850 5848 5847 5846 5844 5843 5841 5839 5837 5835 5832 5830 5827 5825 5823 5820 5817 5814 5811 5809 5806 5803
5852 5853 5854 5855 5855 5856 5856 5856 5856 5856 5856 5855 5855 5854 5853 5852 5852 5850 5849 5848 5847 5846 5844 5843 5841 5839 5838 5835 5833 5831 5829 5826 5824 5821 5819 5816 5813 5810 5807 5804 5801 5798 5795
5848 5849 5850 5851 5851 5852 5852 5853 5852 5852 5852 5851 5851 5850 5849 5849 5848 5847 5845 5844 5843 5841 5840 5838 5836 5834 5832 5830 5827 5825 5822 5820 5817 5815 5812 5809 5806 5803 5800 5796 5793 5789 5786